STARLINK-35382, 66019

Orbit data source: Space-Track

STARLINK-35382, 66019 is a payload satellite owned by SpaceX/Seattle (US) in LEO that was launched on Thu, 16 Oct 2025 UTC via an FALCON 9 launch vehicle from the Air Force Eastern Test Range (AFETR). Payload-class satellites include a variety of spacecraft equipped with specific instruments for various scientific and technological missions. These include communications satellites like Starlink; space stations such as the ISS; scientific satellites like the Hubble; Earth observation satellites from companies like Planet Labs, Umbra, and HawkEye 360; GPS; miniature CubeSats for education and research; and military/defense satellites.

Loading next visibility...
Identifier
66019, 2025-232Q
Orbit
LEO
Country
Flag of USUS
Related business
Manufacturer
SpaceX/Seattle
Mission
Operational Commercial Communications
Bus & Motor
STARLINK V2MO, Unknown motor
Mass
575 kg wet, ~530 kg dry
Launch date (UTC)
2025-10-16 (8 months ago)
Launch vehicle
FALCON 9
Launch site
Air Force Eastern Test Range (AFETR)
Object type
Payload
Rocket body
Debris
Shape & HBR
Box + 2 Pan, 17.7 m
Radar Cross Section
36.964 m², Large (>1 m²)

Expand to show TLE details & history
Last TLE update: 16 hours ago

TLE from 16 hours ago
0 STARLINK-35382
1 66019U 25232Q   26171.18889408  .00011547  00000-0  35213-3 0  9994
2 66019  53.1607 347.4558 0001093 104.2327 255.8797 15.34420126 39131
Epoch: 2026-06-20T04:32Z
TLE epoch observation values (Epoch: 2026-06-20T04:32:00.448Z)
Latitude
-0.00003°
Longitude
11.04682°
Altitude
463.727 km
Speed
7.636 km/s
True Right ascension
23h 09m 49s
True Declination
0° 00' 00"
Sunlit
Object was in daylight at epoch
Visualization orbit readout
Latitude
Unknown
Longitude
Unknown
Altitude
Unknown
Speed
Unknown
Apparent Right ascension
Unknown
Apparent Declination
Unknown
Sunlit
N/A
Visualization observer readout
Local Sidereal Time
07:15:31
Azimuth
Unknown
Elevation
Unknown
Doppler factor
Unknown
Orbital elements
Apogee altitude
463.648 km
Perigee altitude
462.152 km
Semi-major axis
6,841.037 km
Eccentricity
0.00011
Inclination
53.1607°
RAAN
347.4558°
Arg. of periapsis
104.2327°
True anomaly
255.86755°
Mean anomaly
255.8797°
Eccentric anomaly
255.87363°
Mean motion
3.83584 °/min
Orbital period
93.85 mins
BSTAR
0.00035213
Loading maneuver chart data...
Computing Atmospheric mass density...
Loading historical data...
Loading historical data...
Loading historical data...
Loading historical data...
Loading historical data...
Loading historical data...
Loading historical data...

Documentation

Showing up to 5 results
|